User: anonymous   Login
Location: Dompnac
(44.5644°N, 4.1026°E)
Time: 01:57:08
(UTC+00:00)
Language:

QB50P2 - Orbit

View from above orbital plane
View from above orbital plane
View from above satellite
View from above satellite

Ground track
Ground track

The orbit data is extracted from the following two-line orbital elements,

1 40032U 14033Y   21058.50564930  .00000387  00000-0  47321-4 0  9997
2 40032  97.9136 345.8153 0011884 170.5681 189.5761 14.88856077362939
Epoch (UTC): 27 February 2021 12:08:08
Eccentricity: 0.0011884
inclination: 97.9136°
perigee height: 593 km
apogee height: 610 km
right ascension of ascending node: 345.8153°
argument of perigee: 170.5681°
revolutions per day: 14.88856077
mean anomaly at epoch: 189.5761°
orbit number at epoch: 36293

The dashed part of the orbit path shows where the satellite is in the earth's shadow,  

DLR